2024/02/14 00:00:00,55.1, 5.7
2024/02/14 00:10:00,55.1, 5.8
2024/02/14 00:20:00,55.1, 5.5
2024/02/14 00:30:00,55.1, 5.2
2024/02/14 00:40:00,55.0, 5.5
2024/02/14 00:50:00,55.0, 5.7
2024/02/14 01:00:00,55.0, 5.4
2024/02/14 01:10:00,55.0, 5.0
2024/02/14 01:20:00,54.9, 3.9
2024/02/14 01:30:00,55.0, 3.8
2024/02/14 01:40:00,55.0, 3.9
2024/02/14 01:50:00,55.0, 4.3
2024/02/14 02:00:00,55.0, 4.7
2024/02/14 02:10:00,55.0, 4.9
2024/02/14 02:20:00,54.9, 3.9
2024/02/14 02:30:00,54.9, 3.4
2024/02/14 02:40:00,54.9, 3.9
2024/02/14 02:50:00,54.9, 3.4
2024/02/14 03:00:00,54.8, 4.0
2024/02/14 03:10:00,54.8, 3.8
2024/02/14 03:20:00,54.8, 3.3
2024/02/14 03:30:00,54.9, 2.9
2024/02/14 03:40:00,54.9, 2.9
2024/02/14 03:50:00,54.8, 2.9
2024/02/14 04:00:00,54.8, 2.7
2024/02/14 04:10:00,54.8, 3.1
2024/02/14 04:20:00,54.8, 3.3
2024/02/14 04:30:00,54.8, 3.1
2024/02/14 04:40:00,54.8, 3.2
2024/02/14 04:50:00,54.8, 3.6
2024/02/14 05:00:00,54.8, 3.8
2024/02/14 05:10:00,54.8, 3.9
2024/02/14 05:20:00,54.8, 4.6
2024/02/14 05:30:00,54.8, 4.7
2024/02/14 05:40:00,54.8, 4.4
2024/02/14 05:50:00,54.8, 4.6
2024/02/14 06:00:00,54.8, 4.7
2024/02/14 06:10:00,54.7, 5.5
2024/02/14 06:20:00,54.7, 5.3
2024/02/14 06:30:00,54.7, 5.1
2024/02/14 06:40:00,54.6, 4.7
2024/02/14 06:50:00,54.6, 4.5
2024/02/14 07:00:00,54.6, 4.4
2024/02/14 07:10:00,54.7, 4.4
2024/02/14 07:20:00,54.6, 5.4
2024/02/14 07:30:00,54.6, 5.0
2024/02/14 07:40:00,54.6, 4.4
2024/02/14 07:50:00,54.6, 4.9
2024/02/14 08:00:00,54.6, 5.2
2024/02/14 08:10:00,54.6, 5.5
2024/02/14 08:20:00,54.5, 5.3
2024/02/14 08:30:00,54.5, 5.9
2024/02/14 08:40:00,54.5, 5.7
2024/02/14 08:50:00,54.5, 5.8
2024/02/14 09:00:00,54.4, 6.0
2024/02/14 09:10:00,54.5, 6.4
2024/02/14 09:20:00,54.4, 8.3
2024/02/14 09:30:00,54.2,10.1
2024/02/14 09:40:00,53.9,13.5
2024/02/14 09:50:00,53.9,13.2
2024/02/14 10:00:00,54.1,13.3
2024/02/14 10:10:00,53.9,15.1
2024/02/14 10:20:00,53.7,13.7
2024/02/14 10:30:00,53.5,14.9
2024/02/14 10:40:00,53.4,15.1
2024/02/14 10:50:00,53.5,15.5
2024/02/14 11:00:00,53.4,15.8
2024/02/14 11:10:00,53.0,15.2
2024/02/14 11:20:00,53.2,14.6
2024/02/14 11:30:00,53.0,14.8
2024/02/14 11:40:00,53.0,14.5
2024/02/14 11:50:00,52.9,14.1
2024/02/14 12:00:00,52.7,16.0
2024/02/14 12:10:00,52.5,16.2
2024/02/14 12:20:00,52.4,17.3
2024/02/14 12:30:00,52.3,16.1
2024/02/14 12:40:00,52.2,14.4
2024/02/14 12:50:00,52.0,17.1
2024/02/14 13:00:00,51.8,19.6
2024/02/14 13:10:00,51.7,17.3
2024/02/14 13:20:00,51.6,15.2
2024/02/14 13:30:00,51.6,13.7
2024/02/14 13:40:00,51.4,12.2
2024/02/14 13:50:00,51.2,12.4
2024/02/14 14:00:00,51.1,11.6
2024/02/14 14:10:00,51.1,11.1
2024/02/14 14:20:00,51.0,13.5
2024/02/14 14:30:00,50.7,13.2
2024/02/14 14:40:00,50.6,11.5
2024/02/14 14:50:00,50.6, 9.8
2024/02/14 15:00:00,50.5,11.9
2024/02/14 15:10:00,50.5,11.7
2024/02/14 15:20:00,50.4,11.7
2024/02/14 15:30:00,50.3,10.2
2024/02/14 15:40:00,50.2,10.7
2024/02/14 15:50:00,50.1,12.1
2024/02/14 16:00:00,49.9,12.5
2024/02/14 16:10:00,49.7,14.6
2024/02/14 16:20:00,49.7,13.9
2024/02/14 16:30:00,49.5,15.2
2024/02/14 16:40:00,49.4,14.2
2024/02/14 16:50:00,49.4,13.2
2024/02/14 17:00:00,49.3,10.7
2024/02/14 17:10:00,49.1, 9.7
2024/02/14 17:20:00,48.9, 8.3
2024/02/14 17:30:00,48.8, 8.1
2024/02/14 17:40:00,48.8, 7.6
2024/02/14 17:50:00,48.8, 7.0
2024/02/14 18:00:00,48.8, 6.7
2024/02/14 18:10:00,48.9, 6.5
2024/02/14 18:20:00,48.8, 6.5
2024/02/14 18:30:00,48.9, 5.8
2024/02/14 18:40:00,48.9, 5.4
2024/02/14 18:50:00,48.8, 5.3
2024/02/14 19:00:00,48.8, 5.0
2024/02/14 19:10:00,48.9, 4.8
2024/02/14 19:20:00,48.9, 4.8
2024/02/14 19:30:00,48.8, 5.1
2024/02/14 19:40:00,48.9, 5.8
2024/02/14 19:50:00,48.9, 6.2
2024/02/14 20:00:00,48.9, 5.7
2024/02/14 20:10:00,49.1, 5.5
2024/02/14 20:20:00,49.0, 5.7
2024/02/14 20:30:00,48.8, 5.7
2024/02/14 20:40:00,48.7, 5.8
2024/02/14 20:50:00,48.7, 6.2
2024/02/14 21:00:00,48.7, 6.1
2024/02/14 21:10:00,48.6, 5.9
2024/02/14 21:20:00,48.6, 5.1
2024/02/14 21:30:00,48.6, 4.9
2024/02/14 21:40:00,48.5, 4.7
2024/02/14 21:50:00,48.5, 5.1
2024/02/14 22:00:00,48.6, 4.7
2024/02/14 22:10:00,48.5, 5.0
2024/02/14 22:20:00,48.5, 4.7
2024/02/14 22:30:00,48.5, 5.7
2024/02/14 22:40:00,48.5, 5.1
2024/02/14 22:50:00,48.5, 6.5
2024/02/14 23:00:00,48.5, 6.8
2024/02/14 23:10:00,48.4, 6.8
2024/02/14 23:20:00,48.3, 6.5
2024/02/14 23:30:00,48.2, 6.5
2024/02/14 23:40:00,48.2, 6.1
2024/02/14 23:50:00,48.2, 6.7
